Year,Month,Day,Hour,Minute,Value (Times are PST for windspeed in km/hr)
2006,02,02,14,49,7.90
2006,02,02,14,50,2.90
2006,02,02,14,51,5.40
2006,02,02,14,52,7.60
2006,02,02,14,53,5.90
2006,02,02,14,54,4.50
2006,02,02,14,55,7.00
2006,02,02,14,56,6.40
2006,02,02,14,57,6.20
2006,02,02,14,58,6.40
2006,02,02,14,59,5.30
2006,02,02,15,00,6.30
2006,02,02,15,01,5.60
2006,02,02,15,02,4.20
2006,02,02,15,03,4.40
2006,02,02,15,04,7.20
2006,02,02,15,05,6.90
2006,02,02,15,06,4.70
2006,02,02,15,07,5.90
2006,02,02,15,08,3.10
2006,02,02,15,09,3.20
2006,02,02,15,10,4.30
2006,02,02,15,11,4.30
2006,02,02,15,12,3.20
2006,02,02,15,55,5.40
2006,02,02,15,56,6.00
2006,02,02,15,57,5.10
2006,02,02,15,58,6.90
2006,02,02,15,59,6.40
2006,02,02,16,00,5.50
2006,02,02,16,01,6.60
2006,02,02,16,02,5.50
2006,02,02,16,03,9.40
2006,02,02,16,04,6.70
2006,02,02,16,05,3.90
2006,02,02,16,06,5.00
2006,02,02,16,07,6.10
2006,02,02,16,08,3.90
2006,02,02,16,09,4.80
2006,02,02,16,10,6.10
2006,02,02,16,11,4.80
2006,02,02,16,12,4.70
2006,02,02,16,13,6.90
2006,02,02,16,14,5.50
2006,02,02,16,15,9.40
2006,02,02,16,16,7.80
2006,02,02,16,17,7.00
2006,02,02,16,18,7.60
2006,02,02,16,19,5.60
2006,02,02,16,20,5.70
2006,02,02,16,21,6.10
2006,02,02,16,22,6.40
2006,02,02,16,23,6.20
2006,02,02,16,24,7.50
2006,02,02,16,25,8.10
2006,02,02,16,26,7.40
2006,02,02,16,27,6.40
2006,02,02,16,28,6.40
2006,02,02,16,29,6.50
2006,02,02,16,30,6.70
2006,02,02,16,31,5.20
2006,02,02,16,32,6.70
2006,02,02,16,33,7.00
2006,02,02,16,34,8.70
2006,02,02,16,35,6.70
2006,02,02,16,36,5.70
2006,02,02,16,37,6.60
2006,02,02,16,38,8.40
2006,02,02,16,39,5.50
2006,02,02,16,40,7.40
2006,02,02,16,41,7.90
2006,02,02,16,42,8.20
2006,02,02,16,43,8.30
2006,02,02,16,44,6.00
2006,02,02,16,45,7.10
2006,02,02,16,46,5.00
2006,02,02,16,47,3.90
2006,02,02,16,48,4.30
2006,02,02,16,49,7.80
2006,02,02,16,50,7.90
2006,02,02,16,51,5.60
2006,02,02,16,52,4.80
2006,02,02,16,53,4.80
2006,02,02,16,54,4.40
2006,02,02,16,55,5.10
2006,02,02,16,56,5.20
2006,02,02,16,57,3.70
2006,02,02,16,58,5.70
2006,02,02,16,59,3.20
2006,02,02,17,00,4.40
2006,02,02,17,01,5.50
2006,02,02,17,02,3.30
2006,02,02,17,03,8.10
2006,02,02,17,04,6.40
2006,02,02,17,05,4.20
2006,02,02,17,06,3.50
2006,02,02,17,07,4.80
2006,02,02,17,08,5.30
2006,02,02,17,09,4.70
2006,02,02,17,10,0.40
2006,02,02,17,11,0.00
2006,02,02,17,12,0.00
2006,02,02,17,13,0.90
2006,02,02,17,14,2.70
2006,02,02,17,15,3.90
2006,02,02,17,16,1.90
2006,02,02,17,17,1.80
2006,02,02,17,18,0.90
2006,02,02,17,19,0.70
2006,02,02,17,20,5.00
2006,02,02,17,21,1.80
2006,02,02,17,22,0.30
2006,02,02,17,23,2.60
2006,02,02,17,24,3.40
2006,02,02,17,25,4.10
2006,02,02,17,26,3.20
2006,02,02,17,27,3.20
2006,02,02,17,28,3.20
2006,02,02,17,29,3.60
2006,02,02,17,30,3.10
2006,02,02,17,31,2.80
2006,02,02,17,32,4.80
2006,02,02,17,33,4.50
2006,02,02,17,34,1.40
2006,02,02,17,35,3.40
2006,02,02,17,36,3.10
2006,02,02,17,37,2.80
2006,02,02,17,38,7.00
2006,02,02,17,39,4.10
2006,02,02,17,40,2.70
2006,02,02,17,41,2.50
2006,02,02,17,42,1.60
2006,02,02,17,43,1.60
2006,02,02,17,44,2.50
2006,02,02,17,45,2.40
2006,02,02,17,46,2.10
2006,02,02,17,47,1.50
2006,02,02,17,48,1.80
2006,02,02,17,49,0.30
2006,02,02,17,50,2.20
2006,02,02,17,51,5.10
2006,02,02,17,52,4.80
2006,02,02,17,53,8.40
2006,02,02,17,54,6.90
2006,02,02,17,55,4.10
2006,02,02,17,56,4.50
2006,02,02,17,57,6.40
2006,02,02,17,58,9.90
2006,02,02,17,59,11.40
2006,02,02,18,00,8.90
2006,02,02,18,01,8.30
2006,02,02,18,02,15.10
2006,02,02,18,03,11.90
2006,02,02,18,04,19.10
2006,02,02,18,05,15.50
2006,02,02,18,06,16.10
2006,02,02,18,07,17.90
2006,02,02,18,08,19.90
2006,02,02,18,09,21.10
2006,02,02,18,10,21.10
2006,02,02,18,11,22.20
2006,02,02,18,12,22.00
2006,02,02,18,13,23.20
2006,02,02,18,14,19.80
2006,02,02,18,15,21.50
2006,02,02,18,16,19.70
2006,02,02,18,17,19.80
2006,02,02,18,18,17.30
2006,02,02,18,19,19.30
2006,02,02,18,20,17.90
2006,02,02,18,21,18.60
2006,02,02,18,22,18.80
2006,02,02,18,23,17.50
2006,02,02,18,24,16.20
2006,02,02,18,25,17.10
2006,02,02,18,26,17.20
2006,02,02,18,27,8.60
2006,02,02,18,28,8.30
2006,02,02,18,29,10.70
2006,02,02,18,30,9.20
2006,02,02,18,31,7.30
2006,02,02,18,32,6.40
2006,02,02,18,33,6.90
2006,02,02,18,34,8.10
2006,02,02,18,35,7.40
2006,02,02,18,36,6.20
2006,02,02,18,37,8.70
2006,02,02,18,38,11.10
2006,02,02,18,39,12.30
2006,02,02,18,40,7.60
2006,02,02,18,41,8.80
2006,02,02,18,42,9.50
2006,02,02,18,43,9.80
2006,02,02,18,44,8.90
2006,02,02,18,45,9.30
2006,02,02,18,46,7.80
2006,02,02,18,47,8.70
2006,02,02,18,48,6.90
2006,02,02,18,49,6.00
2006,02,02,18,50,5.80
2006,02,02,18,51,5.80
2006,02,02,18,52,6.60
2006,02,02,18,53,5.50
2006,02,02,18,54,6.70
2006,02,02,18,55,6.00
2006,02,02,18,56,6.30
2006,02,02,18,57,5.70
2006,02,02,18,58,6.70
2006,02,02,18,59,9.70
2006,02,02,19,00,4.40
2006,02,02,19,01,5.50
2006,02,02,19,02,5.50
2006,02,02,19,03,4.80
2006,02,02,19,04,3.40
2006,02,02,19,05,5.30
2006,02,02,19,06,7.20
2006,02,02,19,07,7.90
2006,02,02,19,08,8.10
2006,02,02,19,09,7.10
2006,02,02,19,10,9.60
2006,02,02,19,11,12.90
2006,02,02,19,12,13.70
2006,02,02,19,13,10.70
2006,02,02,19,14,12.40
2006,02,02,19,15,10.80
2006,02,02,19,16,11.30
2006,02,02,19,17,14.90
2006,02,02,19,18,16.70
2006,02,02,19,19,17.60
2006,02,02,19,20,13.30
2006,02,02,19,21,13.10
2006,02,02,19,22,12.30
2006,02,02,19,23,16.00
2006,02,02,19,24,13.70
2006,02,02,19,25,17.10
2006,02,02,19,26,9.70
2006,02,02,19,27,14.90
2006,02,02,19,28,13.60
2006,02,02,19,29,11.80
2006,02,02,19,30,7.10
2006,02,02,19,31,7.40
2006,02,02,19,32,11.80
2006,02,02,19,33,9.60
2006,02,02,19,34,10.80
2006,02,02,19,35,14.00
2006,02,02,19,36,14.20
2006,02,02,19,37,15.40
2006,02,02,19,38,9.80
2006,02,02,19,39,12.20
2006,02,02,19,40,12.90
2006,02,02,19,41,12.90
2006,02,02,19,42,12.90
2006,02,02,19,43,12.90
2006,02,02,19,44,12.90
2006,02,02,19,45,12.90
2006,02,02,19,46,6.80
2006,02,02,19,47,8.40
2006,02,02,19,48,7.90
2006,02,02,19,49,8.50
2006,02,02,19,50,9.00
2006,02,02,19,51,7.30
2006,02,02,19,52,7.80
2006,02,02,19,53,7.30
2006,02,02,19,54,8.30
2006,02,02,19,55,8.30
2006,02,02,19,56,7.30
2006,02,02,19,57,6.80
2006,02,02,19,58,6.00
2006,02,02,19,59,6.70
2006,02,02,20,00,7.40
2006,02,02,20,01,11.30
2006,02,02,20,02,11.30
2006,02,02,20,03,7.80
2006,02,02,20,04,6.40
2006,02,02,20,05,5.80
2006,02,02,20,06,5.10
2006,02,02,20,07,4.80
2006,02,02,20,08,4.80
2006,02,02,20,09,4.80
2006,02,02,20,10,5.70
2006,02,02,20,11,5.80
2006,02,02,20,12,4.90
2006,02,02,20,13,7.10
2006,02,02,20,14,6.20
2006,02,02,20,15,3.70
2006,02,02,20,16,3.90
2006,02,02,20,17,5.70
2006,02,02,20,18,1.80
2006,02,02,20,19,3.10
2006,02,02,20,20,6.10
2006,02,02,20,21,10.30
2006,02,02,20,22,11.10
2006,02,02,20,23,11.60
2006,02,02,20,24,11.30
2006,02,02,20,25,8.80
2006,02,02,20,26,12.50
2006,02,02,20,27,10.90
2006,02,02,20,28,10.70
2006,02,02,20,29,9.10
2006,02,02,20,30,8.30
2006,02,02,20,31,9.90
2006,02,02,20,32,7.80
2006,02,02,20,33,8.80
2006,02,02,20,34,4.70
2006,02,02,20,35,6.20
2006,02,02,20,36,5.20
2006,02,02,20,37,3.50
2006,02,02,20,38,7.60
2006,02,02,20,39,6.40
2006,02,02,20,40,5.00
2006,02,02,20,41,8.80
2006,02,02,20,42,7.40
2006,02,02,20,43,7.30
2006,02,02,20,44,9.10
2006,02,02,20,45,6.70
2006,02,02,20,46,6.60
2006,02,02,20,47,9.30
2006,02,02,20,48,6.40
2006,02,02,20,49,7.70
2006,02,02,20,50,6.90
2006,02,02,20,51,7.80
2006,02,02,20,52,7.20
2006,02,02,20,53,8.40
2006,02,02,20,54,5.50
2006,02,02,20,55,4.80
2006,02,02,20,56,4.80
2006,02,02,20,57,4.80
2006,02,02,20,58,4.10
2006,02,02,20,59,3.00
2006,02,02,21,00,3.70
2006,02,02,21,01,2.90
2006,02,02,21,02,2.30
2006,02,02,21,03,3.50
2006,02,02,21,04,3.60
2006,02,02,21,05,4.20
2006,02,02,21,06,4.30
2006,02,02,21,07,2.90
2006,02,02,21,08,3.10
2006,02,02,21,09,4.10
2006,02,02,21,10,3.90
2006,02,02,21,11,4.90
2006,02,02,21,12,4.80
2006,02,02,21,13,4.00
2006,02,02,21,14,2.90
2006,02,02,21,15,3.80
2006,02,02,21,16,3.70
2006,02,02,21,17,4.30
2006,02,02,21,18,3.00
2006,02,02,21,19,4.80
2006,02,02,21,20,5.00
2006,02,02,21,21,3.10
2006,02,02,21,22,3.10
2006,02,02,21,23,5.40
2006,02,02,21,24,4.80
2006,02,02,21,25,4.80
2006,02,02,21,26,3.20
2006,02,02,21,27,0.40
2006,02,02,21,28,0.70
2006,02,02,21,29,1.10
2006,02,02,21,30,2.70
2006,02,02,21,31,3.60
2006,02,02,21,32,5.00
2006,02,02,21,33,5.00
2006,02,02,21,34,4.80
2006,02,02,21,35,4.80
2006,02,02,21,36,2.00
2006,02,02,21,37,0.10
2006,02,02,21,38,2.50
2006,02,02,21,39,2.80
2006,02,02,21,40,3.60
2006,02,02,21,41,3.10
2006,02,02,21,42,2.70
2006,02,02,21,43,0.60
2006,02,02,21,44,2.30
2006,02,02,21,45,1.20
2006,02,02,21,46,1.50
2006,02,02,21,47,1.00
2006,02,02,21,48,1.00
2006,02,02,21,49,0.60
2006,02,02,21,50,0.40
2006,02,02,21,51,1.60
2006,02,02,21,52,1.20
2006,02,02,21,53,0.00
2006,02,02,21,54,0.00
2006,02,02,21,55,0.00
2006,02,02,21,56,0.00
2006,02,02,21,57,0.00
2006,02,02,21,58,0.00
2006,02,02,21,59,0.00
2006,02,02,22,00,0.00
2006,02,02,22,01,0.00
2006,02,02,22,02,0.00
2006,02,02,22,03,0.10
2006,02,02,22,04,0.00
2006,02,02,22,05,0.10
2006,02,02,22,06,0.80
2006,02,02,22,07,0.00
2006,02,02,22,08,1.10
2006,02,02,22,09,1.00
2006,02,02,22,10,0.00
2006,02,02,22,11,0.40
2006,02,02,22,12,0.00
2006,02,02,22,13,0.00
2006,02,02,22,14,0.00
2006,02,02,22,15,0.00
2006,02,02,22,16,0.00
2006,02,02,22,17,0.00
2006,02,02,22,18,0.00
2006,02,02,22,19,0.00
2006,02,02,22,20,0.00
2006,02,02,22,21,0.00
2006,02,02,22,22,0.00
2006,02,02,22,23,0.00
2006,02,02,22,24,0.00
2006,02,02,22,25,0.00
2006,02,02,22,26,1.00
2006,02,02,22,27,4.60
2006,02,02,22,28,5.10
2006,02,02,22,29,3.30
2006,02,02,22,30,0.10
2006,02,02,22,31,0.00
2006,02,02,22,32,0.00
2006,02,02,22,33,0.00
2006,02,02,22,34,0.00
2006,02,02,22,35,0.00
2006,02,02,22,36,1.10
2006,02,02,22,37,6.90
2006,02,02,22,38,5.50
2006,02,02,22,39,1.60
2006,02,02,22,40,3.80
2006,02,02,22,41,5.10
2006,02,02,22,42,2.20
2006,02,02,22,43,0.10
2006,02,02,22,44,0.00
2006,02,02,22,45,0.00
2006,02,02,22,46,0.00
2006,02,02,22,47,0.00
2006,02,02,22,48,0.00
2006,02,02,22,49,0.00
2006,02,02,22,50,0.00
2006,02,02,22,51,0.00
2006,02,02,22,52,0.00
2006,02,02,22,53,0.00
2006,02,02,22,54,0.00
2006,02,02,22,55,0.00
2006,02,02,22,56,0.00
2006,02,02,22,57,0.00
2006,02,02,22,58,0.10
2006,02,02,22,59,0.00
2006,02,02,23,00,0.00
2006,02,02,23,01,0.00
2006,02,02,23,02,0.00
2006,02,02,23,03,0.00
2006,02,02,23,04,0.00
2006,02,02,23,05,0.00
2006,02,02,23,06,0.00
2006,02,02,23,07,0.40
2006,02,02,23,08,2.80
2006,02,02,23,09,1.30
2006,02,02,23,10,0.30
2006,02,02,23,11,1.00
2006,02,02,23,12,0.50
2006,02,02,23,13,1.40
2006,02,02,23,14,1.70
2006,02,02,23,15,1.50
2006,02,02,23,16,0.10
2006,02,02,23,17,1.10
2006,02,02,23,18,1.40
2006,02,02,23,19,1.90
2006,02,02,23,20,3.60
2006,02,02,23,21,3.10
2006,02,02,23,22,2.30
2006,02,02,23,23,2.10
2006,02,02,23,24,2.80
2006,02,02,23,25,1.80
2006,02,02,23,26,1.70
2006,02,02,23,27,2.10
2006,02,02,23,28,1.60
2006,02,02,23,29,0.70
2006,02,02,23,30,0.50
2006,02,02,23,31,2.80
2006,02,02,23,32,4.00
2006,02,02,23,33,3.50
2006,02,02,23,34,4.50
2006,02,02,23,35,5.30
2006,02,02,23,36,5.30
2006,02,02,23,37,3.30
2006,02,02,23,38,2.30
2006,02,02,23,39,1.50
2006,02,02,23,40,2.20
2006,02,02,23,41,3.00
2006,02,02,23,42,0.80
2006,02,02,23,43,2.20
2006,02,02,23,44,4.60
2006,02,02,23,45,3.10
2006,02,02,23,46,3.50
2006,02,02,23,47,2.70
2006,02,02,23,48,4.10
2006,02,02,23,49,3.30
2006,02,02,23,50,2.20
2006,02,02,23,51,2.90
2006,02,02,23,52,4.50
2006,02,02,23,53,4.50
2006,02,02,23,54,2.90
2006,02,02,23,55,2.70
2006,02,02,23,56,3.40
2006,02,02,23,57,4.50
2006,02,02,23,58,4.00
2006,02,02,23,59,5.40
